Flag for U.S.A. Weather past 2 weeks in Inverness, Florida, U.S.A.

Now
37 °F

Chilly.


Feels Like: 37 °F
Forecast: 38 / 63 °F
Wind: No wind

Location: The Villages

Current Time: Jan 25, 2015 at 5:57:57 AM

Latest Report: Jan 25, 2015 at 5:15 AM


Visibility: 10 mi

Pressure: 29.96 "Hg

Humidity: 100%

Dew point: 37 °F

Location of InvernessLocation

Historic Weather in Inverness — Graph

°F

Inverness temperature yesterday

Maximum temperature yesterday: 70 °F (at 3:55 AM)
Minimum temperature yesterday: 43 °F (at 11:55 PM)
Average temperature yesterday: 60 °F

Past Weeks' High & Low Weather Summary

 TemperatureHumidityPressure
High79 °F (Jan 23, 1:15 PM)100% (Jan 11, 1:55 AM)30.33 "Hg (Jan 11, 1:55 AM)
Low39 °F (Jan 25, 2:55 AM)24% (Jan 19, 2:15 PM)29.69 "Hg (Jan 24, 3:35 AM)
Average59 °F86%30.04 "Hg
* Reported Jan 10 4:15 AM — Jan 25 4:35 AM, Inverness, Weather by CustomWeather, © 2014

Note: Actual official high and low records may vary slightly from our data, if they occured in-between our weather recording intervals... More about our weather records

Advertising

Inverness weather history for previous 24 hours

 ConditionsComfort  
Time TempWeatherWind HumidityBarometerVisibility
4:35 AM
Jan 25
39 °FChilly.No wind100%29.95 "Hg9 mi
4:15 AM39 °FChilly.No wind93%29.95 "Hg9 mi
3:35 AM39 °FChilly.No wind100%29.95 "Hg8 mi
3:15 AM39 °FChilly.No wind100%29.95 "Hg8 mi
2:55 AM39 °FChilly.No wind100%29.95 "Hg9 mi
2:15 AM41 °FQuite cool.No wind93%29.95 "Hg7 mi
1:55 AM41 °FQuite cool.3 mph100%29.94 "Hg9 mi
1:35 AM41 °FQuite cool.No wind93%29.94 "Hg9 mi
1:15 AM41 °FQuite cool.No wind100%29.93 "Hg8 mi
12:55 AM41 °FQuite cool.No wind100%29.93 "Hg8 mi
12:35 AM43 °FFog.No wind93%29.93 "Hg5 mi
12:15 AM43 °FQuite cool.3 mph93%29.93 "Hg9 mi
11:55 PM
Jan 24
43 °FQuite cool.No wind93%29.94 "Hg9 mi
11:15 PM45 °FQuite cool.No wind87%29.95 "Hg7 mi
10:35 PM46 °FCool.No wind82%29.96 "Hg10 mi
10:15 PM46 °FCool.5 mph87%29.95 "Hg9 mi
9:55 PM46 °FCool.7 mph87%29.95 "Hg9 mi
9:15 PM48 °FCool.7 mph82%29.94 "Hg9 mi
8:55 PM48 °FCool.7 mph87%29.94 "Hg8 mi
8:15 PM48 °FCool.7 mph87%29.92 "Hg9 mi
7:55 PM50 °FCool.8 mph82%29.91 "Hg7 mi
7:15 PM50 °FHaze.7 mph82%29.90 "Hg6 mi
6:55 PM52 °FCool.6 mph77%29.89 "Hg9 mi
6:35 PM52 °FCool.8 mph77%29.89 "Hg9 mi
6:15 PM52 °FHaze.9 mph82%29.88 "Hg5 mi
5:55 PM54 °FCool.10 mph77%29.87 "Hg7 mi
5:15 PM57 °FCool.8 mph67%29.86 "Hg8 mi
4:15 PM59 °FCool.13 mph63%29.86 "Hg7 mi
3:55 PM59 °FCool.12 mph63%29.86 "Hg9 mi
3:15 PM59 °FCool.14 mph63%29.85 "Hg9 mi
2:55 PM59 °FCool.15 mph63%29.85 "Hg9 mi
2:35 PM61 °FRefreshingly cool.14 mph59%29.85 "Hg7 mi
2:15 PM61 °FCool.10 mph63%29.85 "Hg7 mi
1:55 PM59 °FCool.16 mph68%29.85 "Hg9 mi
1:15 PM61 °FCool.20 mph63%29.85 "Hg9 mi
12:55 PM61 °FCool.17 mph63%29.85 "Hg7 mi
12:35 PM61 °FCool.18 mph63%29.85 "Hg9 mi
12:15 PM63 °FMild.17 mph64%29.85 "Hg8 mi
11:55 AM63 °FMild.20 mph59%29.85 "Hg8 mi
11:35 AM63 °FMild.22 mph59%29.85 "Hg8 mi
11:15 AM61 °FCool.15 mph63%29.85 "Hg7 mi
10:55 AM61 °FCool.20 mph68%29.85 "Hg8 mi
10:35 AM59 °FCool.20 mph72%29.85 "HgN/A
10:15 AM59 °FCool.14 mph77%29.86 "Hg9 mi
9:55 AM57 °FCool.20 mph82%29.86 "Hg9 mi
9:15 AM57 °FFog.15 mph88%29.84 "Hg5 mi
8:55 AM57 °FFog.14 mph94%29.83 "Hg5 mi
8:15 AM59 °FFog.13 mph94%29.82 "Hg3 mi
7:55 AM59 °FFog.17 mph94%29.80 "Hg3 mi
7:35 AM61 °FFog.13 mph94%29.78 "Hg4 mi
7:15 AM61 °FFog.13 mph94%29.77 "Hg6 mi
6:55 AM63 °FFog.14 mph94%29.76 "Hg6 mi
6:35 AM63 °FFog.14 mph100%29.75 "Hg2 mi
6:15 AM64 °FFog.12 mph100%29.74 "Hg2 mi
5:55 AM64 °FFog.14 mph100%29.72 "Hg3 mi
5:35 AM66 °FFog.14 mph100%29.71 "Hg4 mi
5:15 AM68 °FFog.20 mph100%29.70 "Hg1 mi
Weather by CustomWeather, © 2014

See weather overviewHow to use our weather pages